Location: Cambridge (historical)
(38.6883°N, 119.0140°W)
Time: 13:27:07
(UTC+00:00)

Cosmos 1892 Rocket - Pass Details

Date: 29 October 2020
Orbit: 607 x 632 km, 82.5° (Epoch: 01 December)

Event Time Altitude Azimuth Distance (km) Brightness Sun altitude
Rises 12:16:00 0° 174° (S) 2,852 7.0 -24.8°
Reaches altitude 10° 12:18:14 10° 169° (S) 1,956 6.2 -24.3°
Maximum altitude 12:22:26 52° 94° (E) 766 4.3 -23.5°
Drops below altitude 10° 12:26:41 10° 18° (NNE) 1,983 6.3 -22.7°
Sets 12:28:58 0° 13° (NNE) 2,897 7.2 -22.2°
